TimeCET,TemperatureF,Dew PointF,Humidity,Sea Level PressureIn,VisibilityMPH,Wind Direction,Wind SpeedMPH,Gust SpeedMPH,PrecipitationIn,Events,Conditions,WindDirDegrees,DateUTC
12:25 AM,50.0,48.2,94,30.60,-9999.0,WSW,6.9,-,N/A,,Partly Cloudy,240,2013-01-03 23:25:00
12:55 AM,50.0,48.2,94,30.60,3.1,WSW,8.1,-,N/A,,Overcast,240,2013-01-03 23:55:00
1:00 AM,49,49,99,30.62,3,WSW,6.7,,,,Mist,250,2013-01-04 00:00:00
1:25 AM,50.0,48.2,94,30.60,3.1,WSW,9.2,-,N/A,,Overcast,240,2013-01-04 00:25:00
1:55 AM,50.0,48.2,94,30.57,1.7,WSW,8.1,-,N/A,,Overcast,240,2013-01-04 00:55:00
2:25 AM,48.2,48.2,100,30.57,1.4,WSW,10.4,-,N/A,,Overcast,240,2013-01-04 01:25:00
2:55 AM,48.2,48.2,100,30.57,1.7,WSW,9.2,-,N/A,,Overcast,250,2013-01-04 01:55:00
3:25 AM,48.2,48.2,100,30.57,1.1,WSW,6.9,-,N/A,,Mostly Cloudy,240,2013-01-04 02:25:00
3:55 AM,48.2,48.2,100,30.57,0.8,WSW,9.2,-,N/A,,Overcast,240,2013-01-04 02:55:00
4:00 AM,48,48,100,30.61,0,WSW,8.9,,,Fog,Fog,240,2013-01-04 03:00:00
4:25 AM,48.2,48.2,100,30.57,0.9,SW,9.2,-,N/A,,Overcast,230,2013-01-04 03:25:00
4:55 AM,48.2,48.2,100,30.57,0.7,SW,11.5,-,N/A,,Overcast,230,2013-01-04 03:55:00
5:25 AM,48.2,48.2,100,30.57,1.1,SW,11.5,-,N/A,,Light Drizzle,230,2013-01-04 04:25:00
5:55 AM,48.2,48.2,100,30.57,1.0,WSW,8.1,-,N/A,,Overcast,250,2013-01-04 04:55:00
6:25 AM,48.2,48.2,100,30.57,0.8,WSW,8.1,-,N/A,,Overcast,240,2013-01-04 05:25:00
6:55 AM,48.2,48.2,100,30.57,0.5,WSW,8.1,-,N/A,Fog,Fog,250,2013-01-04 05:55:00
7:00 AM,48,48,100,30.61,0,WSW,8.9,,,Fog,Fog,250,2013-01-04 06:00:00
7:25 AM,48.2,48.2,100,30.57,0.5,WSW,8.1,-,N/A,Fog,Fog,240,2013-01-04 06:25:00
7:55 AM,48.2,48.2,100,30.57,0.4,WSW,10.4,-,N/A,Fog,Fog,240,2013-01-04 06:55:00
8:25 AM,48.2,48.2,100,30.60,-9999.0,WSW,9.2,-,N/A,Fog,Fog,250,2013-01-04 07:25:00
8:55 AM,48.2,48.2,100,30.60,-9999.0,WSW,10.4,-,N/A,Fog,Fog,240,2013-01-04 07:55:00
9:25 AM,48.2,48.2,100,30.60,-9999.0,WSW,10.4,-,N/A,Fog,Fog,240,2013-01-04 08:25:00
9:55 AM,48.2,48.2,100,30.60,-9999.0,WSW,11.5,-,N/A,Fog,Fog,240,2013-01-04 08:55:00
10:25 AM,48.2,48.2,100,30.60,0.7,WSW,10.4,-,N/A,,Mist,240,2013-01-04 09:25:00
10:55 AM,48.2,48.2,100,30.60,0.6,WSW,10.4,-,N/A,,Overcast,240,2013-01-04 09:55:00
11:25 AM,48.2,48.2,100,30.60,0.7,WSW,10.4,-,N/A,,Overcast,240,2013-01-04 10:25:00
11:55 AM,48.2,48.2,100,30.60,0.9,WSW,10.4,-,N/A,,Mist,250,2013-01-04 10:55:00
12:25 PM,48.2,48.2,100,30.60,0.9,WSW,10.4,-,N/A,,Overcast,250,2013-01-04 11:25:00
12:55 PM,48.2,48.2,100,30.60,1.0,West,8.1,-,N/A,,Overcast,260,2013-01-04 11:55:00
1:00 PM,48,48,100,30.62,1,WSW,8.9,,,,Mist,250,2013-01-04 12:00:00
1:25 PM,48.2,48.2,100,30.57,1.2,West,8.1,-,N/A,,Mostly Cloudy,260,2013-01-04 12:25:00
1:55 PM,48.2,48.2,100,30.57,-9999.0,West,11.5,-,N/A,,Overcast,260,2013-01-04 12:55:00
2:25 PM,48.2,48.2,100,30.57,1.7,West,8.1,-,N/A,,Overcast,260,2013-01-04 13:25:00
2:55 PM,48.2,48.2,100,30.57,3.1,West,8.1,-,N/A,,Overcast,260,2013-01-04 13:55:00
3:25 PM,48.2,48.2,100,30.57,-9999.0,West,8.1,-,N/A,,Overcast,280,2013-01-04 14:25:00
3:55 PM,48.2,48.2,100,30.57,3.1,West,8.1,-,N/A,,Overcast,270,2013-01-04 14:55:00
4:00 PM,48,48,99,30.61,3,West,6.7,,,,Mist,280,2013-01-04 15:00:00
4:25 PM,48.2,48.2,100,30.57,3.1,West,9.2,-,N/A,,Overcast,270,2013-01-04 15:25:00
4:55 PM,48.2,48.2,100,30.57,4.3,WSW,5.8,-,N/A,,Overcast,250,2013-01-04 15:55:00
5:25 PM,48.2,46.4,93,30.57,5.6,WSW,8.1,-,N/A,,Mostly Cloudy,240,2013-01-04 16:25:00
5:55 PM,48.2,46.4,93,30.57,6.2,WSW,6.9,-,N/A,,Mostly Cloudy,250,2013-01-04 16:55:00
6:25 PM,46.4,46.4,100,30.57,1.7,WSW,8.1,-,N/A,,Overcast,250,2013-01-04 17:25:00
6:55 PM,46.4,46.4,100,30.57,1.6,West,6.9,-,N/A,,Overcast,260,2013-01-04 17:55:00
7:00 PM,47,47,99,30.59,1,West,6.7,,,,Mist,260,2013-01-04 18:00:00
7:25 PM,46.4,46.4,100,30.57,1.4,West,6.9,-,N/A,,Overcast,260,2013-01-04 18:25:00
7:55 PM,46.4,46.4,100,30.57,1.3,West,6.9,-,N/A,,Heavy Drizzle,270,2013-01-04 18:55:00
8:25 PM,46.4,46.4,100,30.57,1.6,West,5.8,-,N/A,,Overcast,260,2013-01-04 19:25:00
8:55 PM,46.4,46.4,100,30.57,-9999.0,West,6.9,-,N/A,,Drizzle,260,2013-01-04 19:55:00
9:25 PM,46.4,46.4,100,30.57,-9999.0,West,6.9,-,N/A,,Overcast,280,2013-01-04 20:25:00
9:55 PM,46.4,44.6,93,30.57,2.8,West,6.9,-,N/A,,Light Drizzle,260,2013-01-04 20:55:00
10:00 PM,46,45,93,30.60,3,West,6.7,,,Rain,Light Drizzle,260,2013-01-04 21:00:00
10:25 PM,46.4,44.6,93,30.57,-9999.0,West,6.9,-,N/A,Rain,Light Rain,280,2013-01-04 21:25:00
10:55 PM,44.6,44.6,100,30.57,3.1,West,6.9,-,N/A,Rain,Light Rain,270,2013-01-04 21:55:00
11:25 PM,44.6,44.6,100,30.57,3.7,West,4.6,-,N/A,,Mostly Cloudy,260,2013-01-04 22:25:00
11:55 PM,44.6,44.6,100,30.57,1.7,WSW,5.8,-,N/A,,Overcast,250,2013-01-04 22:55:00